STARLINK-11506, 62466

Orbit data source: Space-Track

STARLINK-11506, 62466 is a payload satellite owned by SpaceX/Seattle (US) in LEO that was launched on Tue, 31 Dec 2024 UTC via an FALCON 9 launch vehicle from the Air Force Eastern Test Range (AFETR). Payload-class satellites include a variety of spacecraft equipped with specific instruments for various scientific and technological missions. These include communications satellites like Starlink; space stations such as the ISS; scientific satellites like the Hubble; Earth observation satellites from companies like Planet Labs, Umbra, and HawkEye 360; GPS; miniature CubeSats for education and research; and military/defense satellites.

Loading next visibility...
Identifier
62466, 2024-254E
Orbit
LEO
Country
Flag of USUS
Related business
Manufacturer
SpaceX/Seattle
Mission
Operational Commercial Communications
Bus & Motor
STARLINK V2MD, Unknown motor
Mass
960 kg wet, ~910 kg dry
Launch date (UTC)
2024-12-31 (2 years ago)
Launch vehicle
FALCON 9
Launch site
Air Force Eastern Test Range (AFETR)
Object type
Payload
Rocket body
Debris
Shape & HBR
Box + 2 Pan, 18.1 m
Radar Cross Section
36.964 m², Large (>1 m²)

Expand to show TLE details & history
Last TLE update: 17 hours ago

TLE from 17 hours ago
0 STARLINK-11506
1 62466U 24254E   26257.77602344  .00147078  00000-0  11284-2 0  9991
2 62466  43.0001 162.8707 0001523 258.3059 101.7638 15.70863090 98987
Epoch: 2026-09-14T18:37Z
TLE epoch observation values (Epoch: 2026-09-14T18:37:28.425Z)
Latitude
0.00001°
Longitude
-110.2492°
Altitude
356.409 km
Speed
7.697 km/s
True Right ascension
10h 51m 28s
True Declination
0° 00' 00"
Sunlit
Object was in daylight at epoch
Visualization orbit readout
Latitude
Unknown
Longitude
Unknown
Altitude
Unknown
Speed
Unknown
Apparent Right ascension
Unknown
Apparent Declination
Unknown
Sunlit
N/A
Visualization observer readout
Local Sidereal Time
03:45:23
Azimuth
Unknown
Elevation
Unknown
Doppler factor
Unknown
Orbital elements
Apogee altitude
359.437 km
Perigee altitude
357.385 km
Semi-major axis
6,736.548 km
Eccentricity
0.00015
Inclination
43.0001°
RAAN
162.8707°
Arg. of periapsis
258.3059°
True anomaly
101.78089°
Mean anomaly
101.7638°
Eccentric anomaly
101.77234°
Mean motion
3.92543 °/min
Orbital period
91.71 mins
BSTAR
0.0011284
Loading maneuver chart data...
Computing Atmospheric mass density...
Loading historical data...
Loading historical data...
Loading historical data...
Loading historical data...
Loading historical data...
Loading historical data...
Loading historical data...

Documentation

Showing up to 5 results
|